contact:dominique.lefevre@mio.osupytheas.fr, maurice.libes@osupytheas.fr, didier.mallarino@osupytheas.fr
Project:EMSO http://www.emso-fr.org/EMSO-France
Depth: 2436.0 m
Title:EMSO Ligure Ouest : Data MII capteur OXYGEN
DateTime,Latitude,Longitude,Optode-Type,Optode_Serial,Oxygen,Saturation_Oxygen,Temperature
DateTime,Latitude,Longitude,Optode-Type,Optode_Serial,µmol.l-1,%,degC
2019-06-02T00:01:22,42.805,6.029,4330,1995,195.560,59.804,13.287
2019-06-02T00:04:22,42.805,6.029,4330,1995,195.609,59.821,13.289
2019-06-02T00:07:22,42.805,6.029,4330,1995,195.541,59.800,13.289
2019-06-02T00:10:22,42.805,6.029,4330,1995,195.524,59.795,13.289
2019-06-02T00:13:22,42.805,6.029,4330,1995,195.567,59.807,13.288
2019-06-02T00:16:22,42.805,6.029,4330,1995,195.634,59.827,13.288
2019-06-02T00:19:22,42.805,6.029,4330,1995,195.588,59.813,13.288
2019-06-02T00:22:22,42.805,6.029,4330,1995,195.559,59.805,13.288
2019-06-02T00:25:22,42.805,6.029,4330,1995,195.578,59.810,13.288
2019-06-02T00:28:22,42.805,6.029,4330,1995,195.575,59.811,13.289
2019-06-02T00:31:22,42.805,6.029,4330,1995,195.563,59.806,13.288
2019-06-02T00:34:22,42.805,6.029,4330,1995,195.579,59.811,13.288
2019-06-02T00:37:22,42.805,6.029,4330,1995,195.567,59.809,13.289
2019-06-02T00:40:22,42.805,6.029,4330,1995,195.575,59.809,13.288
2019-06-02T00:43:22,42.805,6.029,4330,1995,195.555,59.805,13.289
2019-06-02T00:46:22,42.805,6.029,4330,1995,195.559,59.806,13.289
2019-06-02T00:49:22,42.805,6.029,4330,1995,195.510,59.792,13.289
2019-06-02T00:52:22,42.805,6.029,4330,1995,195.475,59.782,13.290
2019-06-02T00:55:22,42.805,6.029,4330,1995,195.546,59.803,13.290
2019-06-02T00:58:22,42.805,6.029,4330,1995,195.519,59.796,13.290
2019-06-02T01:01:22,42.805,6.029,4330,1995,195.500,59.790,13.291
2019-06-02T01:04:22,42.805,6.029,4330,1995,195.482,59.785,13.291
2019-06-02T01:07:22,42.805,6.029,4330,1995,195.506,59.792,13.290
2019-06-02T01:10:22,42.805,6.029,4330,1995,195.540,59.803,13.291
2019-06-02T01:13:22,42.805,6.029,4330,1995,195.481,59.785,13.291
2019-06-02T01:16:22,42.805,6.029,4330,1995,195.521,59.794,13.289
2019-06-02T01:19:22,42.805,6.029,4330,1995,195.500,59.789,13.290
2019-06-02T01:22:22,42.805,6.029,4330,1995,195.479,59.782,13.289
2019-06-02T01:25:22,42.805,6.029,4330,1995,195.474,59.780,13.289
2019-06-02T01:28:22,42.805,6.029,4330,1995,195.547,59.802,13.289
2019-06-02T01:31:22,42.805,6.029,4330,1995,195.505,59.789,13.289
2019-06-02T01:34:22,42.805,6.029,4330,1995,195.529,59.797,13.289
2019-06-02T01:37:22,42.805,6.029,4330,1995,195.534,59.798,13.288
2019-06-02T01:40:22,42.805,6.029,4330,1995,195.498,59.788,13.289
2019-06-02T01:43:22,42.805,6.029,4330,1995,195.454,59.773,13.289
2019-06-02T01:46:22,42.805,6.029,4330,1995,195.485,59.782,13.288
2019-06-02T01:49:22,42.805,6.029,4330,1995,195.460,59.774,13.288
2019-06-02T01:52:22,42.805,6.029,4330,1995,195.407,59.759,13.289
2019-06-02T01:55:22,42.805,6.029,4330,1995,195.419,59.763,13.289
2019-06-02T01:58:22,42.805,6.029,4330,1995,195.451,59.771,13.288
2019-06-02T02:01:22,42.805,6.029,4330,1995,195.442,59.768,13.287
2019-06-02T02:04:22,42.805,6.029,4330,1995,195.474,59.778,13.287
2019-06-02T02:07:22,42.805,6.029,4330,1995,195.439,59.767,13.287
2019-06-02T02:10:22,42.805,6.029,4330,1995,195.396,59.754,13.287
2019-06-02T02:13:22,42.805,6.029,4330,1995,195.431,59.765,13.288
2019-06-02T02:16:22,42.805,6.029,4330,1995,195.404,59.756,13.287
2019-06-02T02:19:22,42.805,6.029,4330,1995,195.491,59.783,13.287
2019-06-02T02:22:22,42.805,6.029,4330,1995,195.433,59.765,13.287
2019-06-02T02:25:22,42.805,6.029,4330,1995,195.447,59.770,13.287
2019-06-02T02:28:22,42.805,6.029,4330,1995,195.488,59.782,13.287
2019-06-02T02:31:22,42.805,6.029,4330,1995,195.526,59.794,13.287
2019-06-02T02:34:22,42.805,6.029,4330,1995,195.566,59.806,13.287
2019-06-02T02:37:22,42.805,6.029,4330,1995,195.571,59.808,13.287
2019-06-02T02:40:22,42.805,6.029,4330,1995,195.619,59.823,13.288
2019-06-02T02:43:22,42.805,6.029,4330,1995,195.590,59.814,13.288
2019-06-02T02:46:22,42.805,6.029,4330,1995,195.617,59.822,13.288
2019-06-02T02:49:22,42.805,6.029,4330,1995,195.584,59.812,13.288
2019-06-02T02:52:22,42.805,6.029,4330,1995,195.615,59.822,13.288
2019-06-02T02:55:22,42.805,6.029,4330,1995,195.628,59.826,13.288
2019-06-02T02:58:22,42.805,6.029,4330,1995,195.614,59.822,13.288
2019-06-02T03:01:22,42.805,6.029,4330,1995,195.616,59.822,13.288
2019-06-02T03:04:22,42.805,6.029,4330,1995,195.650,59.832,13.288
2019-06-02T03:07:22,42.805,6.029,4330,1995,195.524,59.797,13.290
2019-06-02T03:10:22,42.805,6.029,4330,1995,195.565,59.808,13.289
2019-06-02T03:13:22,42.805,6.029,4330,1995,195.582,59.812,13.288
2019-06-02T03:16:22,42.805,6.029,4330,1995,195.583,59.815,13.290
2019-06-02T03:19:22,42.805,6.029,4330,1995,195.641,59.830,13.288
2019-06-02T03:22:22,42.805,6.029,4330,1995,195.604,59.819,13.289
2019-06-02T03:25:22,42.805,6.029,4330,1995,195.529,59.796,13.289
2019-06-02T03:28:22,42.805,6.029,4330,1995,195.536,59.798,13.288
2019-06-02T03:31:22,42.805,6.029,4330,1995,195.594,59.816,13.289
2019-06-02T03:34:22,42.805,6.029,4330,1995,195.542,59.800,13.289
2019-06-02T03:37:22,42.805,6.029,4330,1995,195.557,59.805,13.289
2019-06-02T03:40:22,42.805,6.029,4330,1995,195.611,59.821,13.288
2019-06-02T03:43:22,42.805,6.029,4330,1995,195.537,59.798,13.288
2019-06-02T03:46:22,42.805,6.029,4330,1995,195.606,59.819,13.288
2019-06-02T03:49:22,42.805,6.029,4330,1995,195.581,59.812,13.289
2019-06-02T03:52:22,42.805,6.029,4330,1995,195.610,59.821,13.289
2019-06-02T03:55:22,42.805,6.029,4330,1995,195.572,59.808,13.288
2019-06-02T03:58:22,42.805,6.029,4330,1995,195.531,59.799,13.290
2019-06-02T04:01:22,42.805,6.029,4330,1995,195.548,59.801,13.288
2019-06-02T04:04:22,42.805,6.029,4330,1995,195.547,59.802,13.288
2019-06-02T04:07:22,42.805,6.029,4330,1995,195.524,59.794,13.288
2019-06-02T04:10:22,42.805,6.029,4330,1995,195.519,59.792,13.288
2019-06-02T04:13:22,42.805,6.029,4330,1995,195.511,59.789,13.288
2019-06-02T04:16:22,42.805,6.029,4330,1995,195.503,59.787,13.288
2019-06-02T04:19:22,42.805,6.029,4330,1995,195.516,59.791,13.288
2019-06-02T04:22:22,42.805,6.029,4330,1995,195.487,59.783,13.288
2019-06-02T04:25:22,42.805,6.029,4330,1995,195.553,59.802,13.287
2019-06-02T04:28:22,42.805,6.029,4330,1995,195.512,59.790,13.287
2019-06-02T04:31:22,42.805,6.029,4330,1995,195.463,59.775,13.288
2019-06-02T04:34:22,42.805,6.029,4330,1995,195.497,59.785,13.288
2019-06-02T04:37:22,42.805,6.029,4330,1995,195.475,59.779,13.288
2019-06-02T04:40:22,42.805,6.029,4330,1995,195.449,59.771,13.288
2019-06-02T04:43:22,42.805,6.029,4330,1995,195.451,59.771,13.288
2019-06-02T04:46:22,42.805,6.029,4330,1995,195.504,59.787,13.288
2019-06-02T04:49:22,42.805,6.029,4330,1995,195.484,59.782,13.288
2019-06-02T04:52:22,42.805,6.029,4330,1995,195.493,59.785,13.288
2019-06-02T04:55:22,42.805,6.029,4330,1995,195.478,59.780,13.288
2019-06-02T04:58:22,42.805,6.029,4330,1995,195.547,59.801,13.288
2019-06-02T05:01:22,42.805,6.029,4330,1995,195.514,59.791,13.288
2019-06-02T05:04:22,42.805,6.029,4330,1995,195.539,59.798,13.288
2019-06-02T05:07:22,42.805,6.029,4330,1995,195.533,59.797,13.288
2019-06-02T05:10:22,42.805,6.029,4330,1995,195.479,59.782,13.289
2019-06-02T05:13:22,42.805,6.029,4330,1995,195.571,59.809,13.288
2019-06-02T05:16:22,42.805,6.029,4330,1995,195.581,59.812,13.288
2019-06-02T05:19:22,42.805,6.029,4330,1995,195.562,59.806,13.288
2019-06-02T05:22:22,42.805,6.029,4330,1995,195.570,59.809,13.289
2019-06-02T05:25:22,42.805,6.029,4330,1995,195.516,59.793,13.289
2019-06-02T05:28:22,42.805,6.029,4330,1995,195.527,59.796,13.289
2019-06-02T05:31:22,42.805,6.029,4330,1995,195.496,59.786,13.289
2019-06-02T05:34:22,42.805,6.029,4330,1995,195.517,59.792,13.288
2019-06-02T05:37:22,42.805,6.029,4330,1995,195.527,59.796,13.288
2019-06-02T05:40:22,42.805,6.029,4330,1995,195.549,59.802,13.289
2019-06-02T05:43:22,42.805,6.029,4330,1995,195.516,59.793,13.289
2019-06-02T05:46:22,42.805,6.029,4330,1995,195.521,59.795,13.290
2019-06-02T05:49:22,42.805,6.029,4330,1995,195.557,59.805,13.289
2019-06-02T05:52:22,42.805,6.029,4330,1995,195.517,59.793,13.289
2019-06-02T05:55:22,42.805,6.029,4330,1995,195.554,59.804,13.288
2019-06-02T05:58:22,42.805,6.029,4330,1995,195.558,59.805,13.288
2019-06-02T06:01:22,42.805,6.029,4330,1995,195.526,59.795,13.288
2019-06-02T06:04:22,42.805,6.029,4330,1995,195.581,59.811,13.288
2019-06-02T06:07:22,42.805,6.029,4330,1995,195.520,59.793,13.288
2019-06-02T06:10:22,42.805,6.029,4330,1995,195.573,59.809,13.288
2019-06-02T06:13:22,42.805,6.029,4330,1995,195.543,59.799,13.288
2019-06-02T06:16:22,42.805,6.029,4330,1995,195.524,59.794,13.288
2019-06-02T06:19:22,42.805,6.029,4330,1995,195.553,59.802,13.288
2019-06-02T06:22:22,42.805,6.029,4330,1995,195.501,59.786,13.288
2019-06-02T06:25:22,42.805,6.029,4330,1995,195.541,59.798,13.288
2019-06-02T06:28:22,42.805,6.029,4330,1995,195.552,59.802,13.287
2019-06-02T06:31:22,42.805,6.029,4330,1995,195.573,59.808,13.287
2019-06-02T06:34:22,42.805,6.029,4330,1995,195.553,59.802,13.287
2019-06-02T06:37:22,42.805,6.029,4330,1995,195.544,59.799,13.287
2019-06-02T06:40:22,42.805,6.029,4330,1995,195.532,59.796,13.287
2019-06-02T06:43:22,42.805,6.029,4330,1995,195.481,59.780,13.288
2019-06-02T06:46:22,42.805,6.029,4330,1995,195.499,59.786,13.288
2019-06-02T06:49:22,42.805,6.029,4330,1995,195.509,59.789,13.288
2019-06-02T06:52:22,42.805,6.029,4330,1995,195.516,59.791,13.288
2019-06-02T06:55:22,42.805,6.029,4330,1995,195.518,59.792,13.288
2019-06-02T06:58:22,42.805,6.029,4330,1995,195.492,59.784,13.288
2019-06-02T07:01:22,42.805,6.029,4330,1995,195.479,59.780,13.288
2019-06-02T07:04:22,42.805,6.029,4330,1995,195.506,59.788,13.288
2019-06-02T07:07:22,42.805,6.029,4330,1995,195.516,59.792,13.288
2019-06-02T07:10:22,42.805,6.029,4330,1995,195.500,59.787,13.288
2019-06-02T07:13:22,42.805,6.029,4330,1995,195.497,59.786,13.288
2019-06-02T07:16:22,42.805,6.029,4330,1995,195.466,59.777,13.288
2019-06-02T07:19:22,42.805,6.029,4330,1995,195.468,59.777,13.288
2019-06-02T07:22:22,42.805,6.029,4330,1995,195.520,59.793,13.288
2019-06-02T07:25:22,42.805,6.029,4330,1995,195.466,59.777,13.288
2019-06-02T07:28:22,42.805,6.029,4330,1995,195.468,59.777,13.288
2019-06-02T07:31:22,42.805,6.029,4330,1995,195.507,59.789,13.289
2019-06-02T07:34:22,42.805,6.029,4330,1995,195.477,59.781,13.289
2019-06-02T07:37:22,42.805,6.029,4330,1995,195.420,59.763,13.288
2019-06-02T07:40:22,42.805,6.029,4330,1995,195.493,59.785,13.288
2019-06-02T07:43:22,42.805,6.029,4330,1995,195.442,59.770,13.289
2019-06-02T07:46:22,42.805,6.029,4330,1995,195.443,59.770,13.289
2019-06-02T07:49:22,42.805,6.029,4330,1995,195.465,59.777,13.288
2019-06-02T07:52:22,42.805,6.029,4330,1995,195.517,59.792,13.288
2019-06-02T07:55:22,42.805,6.029,4330,1995,195.487,59.783,13.288
2019-06-02T07:58:22,42.805,6.029,4330,1995,195.469,59.778,13.288
2019-06-02T08:01:22,42.805,6.029,4330,1995,195.437,59.768,13.289
2019-06-02T08:04:22,42.805,6.029,4330,1995,195.478,59.780,13.288
2019-06-02T08:07:22,42.805,6.029,4330,1995,195.465,59.776,13.288
2019-06-02T08:10:22,42.805,6.029,4330,1995,195.462,59.775,13.288
2019-06-02T08:13:22,42.805,6.029,4330,1995,195.512,59.791,13.288
2019-06-02T08:16:22,42.805,6.029,4330,1995,195.457,59.774,13.288
2019-06-02T08:19:22,42.805,6.029,4330,1995,195.445,59.770,13.288
2019-06-02T08:22:22,42.805,6.029,4330,1995,195.447,59.771,13.288
2019-06-02T08:25:22,42.805,6.029,4330,1995,195.441,59.768,13.288
2019-06-02T08:28:22,42.805,6.029,4330,1995,195.436,59.767,13.288
2019-06-02T08:31:22,42.805,6.029,4330,1995,195.466,59.776,13.288
2019-06-02T08:34:22,42.805,6.029,4330,1995,195.466,59.776,13.288
2019-06-02T08:37:22,42.805,6.029,4330,1995,195.458,59.773,13.288
2019-06-02T08:40:22,42.805,6.029,4330,1995,195.489,59.782,13.287
2019-06-02T08:43:22,42.805,6.029,4330,1995,195.422,59.762,13.288
2019-06-02T08:46:22,42.805,6.029,4330,1995,195.473,59.778,13.287
2019-06-02T08:49:22,42.805,6.029,4330,1995,195.524,59.793,13.287
2019-06-02T08:52:22,42.805,6.029,4330,1995,195.520,59.792,13.287
2019-06-02T08:55:22,42.805,6.029,4330,1995,195.541,59.799,13.288
2019-06-02T08:58:22,42.805,6.029,4330,1995,195.530,59.795,13.288
2019-06-02T09:01:22,42.805,6.029,4330,1995,195.464,59.775,13.288
2019-06-02T09:04:22,42.805,6.029,4330,1995,195.495,59.785,13.288
2019-06-02T09:07:22,42.805,6.029,4330,1995,195.532,59.796,13.288
2019-06-02T09:10:22,42.805,6.029,4330,1995,195.561,59.805,13.288
2019-06-02T09:13:22,42.805,6.029,4330,1995,195.502,59.787,13.288
2019-06-02T09:16:22,42.805,6.029,4330,1995,195.558,59.805,13.288
2019-06-02T09:19:22,42.805,6.029,4330,1995,195.539,59.799,13.288
2019-06-02T09:22:22,42.805,6.029,4330,1995,195.528,59.795,13.288
2019-06-02T09:25:22,42.805,6.029,4330,1995,195.538,59.798,13.288
2019-06-02T09:28:22,42.805,6.029,4330,1995,195.594,59.815,13.288
2019-06-02T09:31:22,42.805,6.029,4330,1995,195.541,59.799,13.288
2019-06-02T09:34:22,42.805,6.029,4330,1995,195.538,59.798,13.288
2019-06-02T09:37:22,42.805,6.029,4330,1995,195.544,59.801,13.288
2019-06-02T09:40:22,42.805,6.029,4330,1995,195.551,59.802,13.288
2019-06-02T09:43:22,42.805,6.029,4330,1995,195.614,59.822,13.288
2019-06-02T09:46:22,42.805,6.029,4330,1995,195.611,59.821,13.289
2019-06-02T09:49:22,42.805,6.029,4330,1995,195.527,59.795,13.288
2019-06-02T09:52:22,42.805,6.029,4330,1995,195.527,59.796,13.288
2019-06-02T09:55:22,42.805,6.029,4330,1995,195.581,59.812,13.289
2019-06-02T09:58:22,42.805,6.029,4330,1995,195.547,59.802,13.289
2019-06-02T10:01:22,42.805,6.029,4330,1995,195.548,59.802,13.288
2019-06-02T10:04:22,42.805,6.029,4330,1995,195.519,59.793,13.289
2019-06-02T10:07:22,42.805,6.029,4330,1995,195.558,59.805,13.289
2019-06-02T10:10:22,42.805,6.029,4330,1995,195.546,59.801,13.288
2019-06-02T10:13:22,42.805,6.029,4330,1995,195.527,59.796,13.289
2019-06-02T10:16:22,42.805,6.029,4330,1995,195.493,59.785,13.288
2019-06-02T10:19:22,42.805,6.029,4330,1995,195.440,59.769,13.288
2019-06-02T10:22:22,42.805,6.029,4330,1995,195.543,59.800,13.288
2019-06-02T10:25:22,42.805,6.029,4330,1995,195.514,59.791,13.288
2019-06-02T10:28:22,42.805,6.029,4330,1995,195.534,59.800,13.290
2019-06-02T10:31:22,42.805,6.029,4330,1995,195.520,59.793,13.288
2019-06-02T10:34:22,42.805,6.029,4330,1995,195.507,59.789,13.288
2019-06-02T10:37:22,42.805,6.029,4330,1995,195.435,59.767,13.288
2019-06-02T10:40:22,42.805,6.029,4330,1995,195.527,59.796,13.289
2019-06-02T10:43:22,42.805,6.029,4330,1995,195.528,59.795,13.288
2019-06-02T10:46:22,42.805,6.029,4330,1995,195.519,59.792,13.288
2019-06-02T10:49:22,42.805,6.029,4330,1995,195.464,59.775,13.287
2019-06-02T10:52:22,42.805,6.029,4330,1995,195.553,59.802,13.287
2019-06-02T10:55:22,42.805,6.029,4330,1995,195.514,59.790,13.287
2019-06-02T10:58:22,42.805,6.029,4330,1995,195.503,59.787,13.287
2019-06-02T11:01:22,42.805,6.029,4330,1995,195.518,59.791,13.287
2019-06-02T11:04:22,42.805,6.029,4330,1995,195.570,59.807,13.287
2019-06-02T11:07:22,42.805,6.029,4330,1995,195.588,59.812,13.287
2019-06-02T11:10:22,42.805,6.029,4330,1995,195.535,59.797,13.288
2019-06-02T11:13:22,42.805,6.029,4330,1995,195.571,59.808,13.288
2019-06-02T11:16:22,42.805,6.029,4330,1995,195.574,59.809,13.287
2019-06-02T11:19:22,42.805,6.029,4330,1995,195.561,59.805,13.288
2019-06-02T11:22:22,42.805,6.029,4330,1995,195.535,59.797,13.288
2019-06-02T11:25:22,42.805,6.029,4330,1995,195.598,59.816,13.287
2019-06-02T11:28:22,42.805,6.029,4330,1995,195.552,59.802,13.288
2019-06-02T11:31:22,42.805,6.029,4330,1995,195.617,59.822,13.288
2019-06-02T11:34:22,42.805,6.029,4330,1995,195.646,59.831,13.288
2019-06-02T11:37:22,42.805,6.029,4330,1995,195.652,59.833,13.288
2019-06-02T11:40:22,42.805,6.029,4330,1995,195.605,59.819,13.288
2019-06-02T11:43:22,42.805,6.029,4330,1995,195.623,59.824,13.288
2019-06-02T11:46:22,42.805,6.029,4330,1995,195.632,59.827,13.288
2019-06-02T11:49:22,42.805,6.029,4330,1995,195.576,59.810,13.288
2019-06-02T11:52:22,42.805,6.029,4330,1995,195.599,59.817,13.288
2019-06-02T11:55:22,42.805,6.029,4330,1995,195.654,59.834,13.288
2019-06-02T11:58:22,42.805,6.029,4330,1995,195.616,59.823,13.289
2019-06-02T12:01:22,42.805,6.029,4330,1995,195.568,59.808,13.288
2019-06-02T12:04:22,42.805,6.029,4330,1995,195.578,59.811,13.288
2019-06-02T12:07:22,42.805,6.029,4330,1995,195.611,59.821,13.288
2019-06-02T12:10:22,42.805,6.029,4330,1995,195.590,59.815,13.288
2019-06-02T12:13:22,42.805,6.029,4330,1995,195.513,59.792,13.289
2019-06-02T12:16:22,42.805,6.029,4330,1995,195.558,59.807,13.290
2019-06-02T12:19:22,42.805,6.029,4330,1995,195.586,59.814,13.289
2019-06-02T12:22:22,42.805,6.029,4330,1995,195.566,59.809,13.290
2019-06-02T12:25:22,42.805,6.029,4330,1995,195.634,59.829,13.289
2019-06-02T12:28:22,42.805,6.029,4330,1995,195.556,59.808,13.291
2019-06-02T12:31:22,42.805,6.029,4330,1995,195.515,59.794,13.290
2019-06-02T12:34:22,42.805,6.029,4330,1995,195.481,59.784,13.290
2019-06-02T12:37:22,42.805,6.029,4330,1995,195.504,59.791,13.290
2019-06-02T12:40:22,42.805,6.029,4330,1995,195.487,59.785,13.290
2019-06-02T12:43:22,42.805,6.029,4330,1995,195.458,59.776,13.290
2019-06-02T12:46:22,42.805,6.029,4330,1995,195.502,59.790,13.290
2019-06-02T12:49:22,42.805,6.029,4330,1995,195.436,59.769,13.290
2019-06-02T12:52:22,42.805,6.029,4330,1995,195.457,59.776,13.290
2019-06-02T12:55:22,42.805,6.029,4330,1995,195.402,59.759,13.290
2019-06-02T12:58:22,42.805,6.029,4330,1995,195.433,59.768,13.290
2019-06-02T13:01:22,42.805,6.029,4330,1995,195.428,59.766,13.289
2019-06-02T13:04:22,42.805,6.029,4330,1995,195.403,59.759,13.289
2019-06-02T13:07:22,42.805,6.029,4330,1995,195.387,59.754,13.289
2019-06-02T13:10:22,42.805,6.029,4330,1995,195.425,59.765,13.289
2019-06-02T13:13:22,42.805,6.029,4330,1995,195.417,59.763,13.290
2019-06-02T13:16:22,42.805,6.029,4330,1995,195.398,59.758,13.290
2019-06-02T13:19:22,42.805,6.029,4330,1995,195.426,59.766,13.289
2019-06-02T13:22:22,42.805,6.029,4330,1995,195.383,59.753,13.290
2019-06-02T13:25:22,42.805,6.029,4330,1995,195.381,59.752,13.290
2019-06-02T13:28:22,42.805,6.029,4330,1995,195.383,59.753,13.290
2019-06-02T13:31:22,42.805,6.029,4330,1995,195.377,59.751,13.290
2019-06-02T13:34:22,42.805,6.029,4330,1995,195.346,59.742,13.290
2019-06-02T13:37:22,42.805,6.029,4330,1995,195.342,59.741,13.290
2019-06-02T13:40:22,42.805,6.029,4330,1995,195.322,59.735,13.290
2019-06-02T13:43:22,42.805,6.029,4330,1995,195.336,59.739,13.290
2019-06-02T13:46:22,42.805,6.029,4330,1995,195.333,59.738,13.290
2019-06-02T13:49:22,42.805,6.029,4330,1995,195.344,59.742,13.290
2019-06-02T13:52:22,42.805,6.029,4330,1995,195.349,59.744,13.290
2019-06-02T13:55:22,42.805,6.029,4330,1995,195.334,59.739,13.290
2019-06-02T13:58:22,42.805,6.029,4330,1995,195.345,59.743,13.291
2019-06-02T14:01:22,42.805,6.029,4330,1995,195.350,59.744,13.290
2019-06-02T14:04:22,42.805,6.029,4330,1995,195.335,59.740,13.291
2019-06-02T14:07:22,42.805,6.029,4330,1995,195.363,59.748,13.291
2019-06-02T14:10:22,42.805,6.029,4330,1995,195.352,59.745,13.291
2019-06-02T14:13:22,42.805,6.029,4330,1995,195.404,59.760,13.290
2019-06-02T14:16:22,42.805,6.029,4330,1995,195.370,59.752,13.292
2019-06-02T14:19:22,42.805,6.029,4330,1995,195.402,59.762,13.292
2019-06-02T14:22:22,42.805,6.029,4330,1995,195.384,59.756,13.292
2019-06-02T14:25:22,42.805,6.029,4330,1995,195.417,59.762,13.289
2019-06-02T14:28:22,42.805,6.029,4330,1995,195.412,59.761,13.289
2019-06-02T14:31:22,42.805,6.029,4330,1995,195.415,59.765,13.292
2019-06-02T14:34:22,42.805,6.029,4330,1995,195.414,59.764,13.291
2019-06-02T14:37:22,42.805,6.029,4330,1995,195.367,59.751,13.292
2019-06-02T14:40:22,42.805,6.029,4330,1995,195.364,59.749,13.291
2019-06-02T14:43:22,42.805,6.029,4330,1995,195.366,59.749,13.291
2019-06-02T14:46:22,42.805,6.029,4330,1995,195.394,59.755,13.289
2019-06-02T14:49:22,42.805,6.029,4330,1995,195.423,59.766,13.290
2019-06-02T14:52:22,42.805,6.029,4330,1995,195.424,59.767,13.291
2019-06-02T14:55:22,42.805,6.029,4330,1995,195.369,59.749,13.290
2019-06-02T14:58:22,42.805,6.029,4330,1995,195.435,59.769,13.290
2019-06-02T15:01:22,42.805,6.029,4330,1995,195.366,59.749,13.290
2019-06-02T15:04:22,42.805,6.029,4330,1995,195.406,59.760,13.289
2019-06-02T15:07:22,42.805,6.029,4330,1995,195.393,59.756,13.290
2019-06-02T15:10:22,42.805,6.029,4330,1995,195.403,59.759,13.289
2019-06-02T15:13:22,42.805,6.029,4330,1995,195.401,59.758,13.289
2019-06-02T15:16:22,42.805,6.029,4330,1995,195.415,59.762,13.289
2019-06-02T15:19:22,42.805,6.029,4330,1995,195.337,59.738,13.289
2019-06-02T15:22:22,42.805,6.029,4330,1995,195.403,59.758,13.289
2019-06-02T15:25:22,42.805,6.029,4330,1995,195.361,59.746,13.289
2019-06-02T15:28:22,42.805,6.029,4330,1995,195.347,59.742,13.289
2019-06-02T15:31:22,42.805,6.029,4330,1995,195.368,59.748,13.289
2019-06-02T15:34:22,42.805,6.029,4330,1995,195.352,59.743,13.289
2019-06-02T15:37:22,42.805,6.029,4330,1995,195.349,59.742,13.289
2019-06-02T15:40:22,42.805,6.029,4330,1995,195.356,59.745,13.290
2019-06-02T15:43:22,42.805,6.029,4330,1995,195.375,59.751,13.290
2019-06-02T15:46:22,42.805,6.029,4330,1995,195.350,59.741,13.288
2019-06-02T15:49:22,42.805,6.029,4330,1995,195.366,59.748,13.290
2019-06-02T15:52:22,42.805,6.029,4330,1995,195.376,59.749,13.288
2019-06-02T15:55:22,42.805,6.029,4330,1995,195.356,59.743,13.289
2019-06-02T15:58:22,42.805,6.029,4330,1995,195.365,59.746,13.288
2019-06-02T16:01:22,42.805,6.029,4330,1995,195.360,59.745,13.289
2019-06-02T16:04:22,42.805,6.029,4330,1995,195.339,59.738,13.289
2019-06-02T16:07:22,42.805,6.029,4330,1995,195.412,59.760,13.289
2019-06-02T16:10:22,42.805,6.029,4330,1995,195.326,59.736,13.290
2019-06-02T16:13:22,42.805,6.029,4330,1995,195.331,59.738,13.290
2019-06-02T16:16:22,42.805,6.029,4330,1995,195.405,59.760,13.290
2019-06-02T16:19:22,42.805,6.029,4330,1995,195.347,59.743,13.290
2019-06-02T16:22:22,42.805,6.029,4330,1995,195.319,59.732,13.289
2019-06-02T16:25:22,42.805,6.029,4330,1995,195.314,59.731,13.289
2019-06-02T16:28:22,42.805,6.029,4330,1995,195.357,59.743,13.288
2019-06-02T16:31:22,42.805,6.029,4330,1995,195.373,59.749,13.289
2019-06-02T16:34:22,42.805,6.029,4330,1995,195.250,59.711,13.289
2019-06-02T16:37:22,42.805,6.029,4330,1995,195.299,59.726,13.289
2019-06-02T16:40:22,42.805,6.029,4330,1995,195.377,59.750,13.289
2019-06-02T16:43:22,42.805,6.029,4330,1995,195.339,59.739,13.289
2019-06-02T16:46:22,42.805,6.029,4330,1995,195.356,59.747,13.291
2019-06-02T16:49:22,42.805,6.029,4330,1995,195.299,59.726,13.289
2019-06-02T16:52:22,42.805,6.029,4330,1995,195.307,59.729,13.289
2019-06-02T16:55:22,42.805,6.029,4330,1995,195.315,59.731,13.289
2019-06-02T16:58:22,42.805,6.029,4330,1995,195.336,59.741,13.291
2019-06-02T17:01:22,42.805,6.029,4330,1995,195.312,59.732,13.291
2019-06-02T17:04:22,42.805,6.029,4330,1995,195.336,59.739,13.290
2019-06-02T17:07:22,42.805,6.029,4330,1995,195.301,59.727,13.289
2019-06-02T17:10:21,42.805,6.029,4330,1995,195.353,59.742,13.288
2019-06-02T17:13:21,42.805,6.029,4330,1995,195.307,59.727,13.288
2019-06-02T17:16:21,42.805,6.029,4330,1995,195.312,59.729,13.288
2019-06-02T17:19:21,42.805,6.029,4330,1995,195.337,59.736,13.288
2019-06-02T17:22:21,42.805,6.029,4330,1995,195.311,59.728,13.287
2019-06-02T17:25:21,42.805,6.029,4330,1995,195.356,59.742,13.288
2019-06-02T17:28:21,42.805,6.029,4330,1995,195.274,59.717,13.287
2019-06-02T17:31:21,42.805,6.029,4330,1995,195.339,59.737,13.288
2019-06-02T17:34:21,42.805,6.029,4330,1995,195.330,59.734,13.288
2019-06-02T17:37:21,42.805,6.029,4330,1995,195.350,59.740,13.287
2019-06-02T17:40:21,42.805,6.029,4330,1995,195.337,59.736,13.287
2019-06-02T17:43:21,42.805,6.029,4330,1995,195.373,59.747,13.288
2019-06-02T17:46:21,42.805,6.029,4330,1995,195.408,59.758,13.288
2019-06-02T17:49:21,42.805,6.029,4330,1995,195.347,59.740,13.288
2019-06-02T17:52:21,42.805,6.029,4330,1995,195.293,59.723,13.288
2019-06-02T17:55:21,42.805,6.029,4330,1995,195.346,59.739,13.288
2019-06-02T17:58:21,42.805,6.029,4330,1995,195.373,59.748,13.288
2019-06-02T18:01:21,42.805,6.029,4330,1995,195.340,59.738,13.288
2019-06-02T18:04:21,42.805,6.029,4330,1995,195.361,59.744,13.288
2019-06-02T18:07:21,42.805,6.029,4330,1995,195.402,59.756,13.288